Regional Weather Roundup
Issued by NWS Newport/Morehead, NC

Home | Current Version | Previous Version | Text Only | Print | Product List | Glossary On
Versions: 1 2 3 4 5 6 7 8 9 10 11 12 13 14 15 16 17 18 19 20 21 22 23 24 25 26 27 28 29 30 31 32 33 34 35 36 37 38 39 40 41 42 43 44 45 46 47 48 49 50
000
ASUS42 KMHX 270225
RWRMHX
WEATHER ROUNDUP FOR EASTERN NORTH CAROLINA
NATIONAL WEATHER SERVICE NEWPORT/MOREHEAD CITY NC
1000 PM EDT TUE MAY 26 2015

NOTE: "FAIR" INDICATES FEW OR NO CLOUDS BELOW 12,000 FEET
WITH NO SIGNIFICANT WEATHER AND/OR OBSTRUCTIONS TO VISIBILITY

NCZ015>017-031-032-045>047-102-103-270300-
NORTH COAST

CITY           SKY/WX    TMP DP  RH WIND       PRES   REMARKS
EDENTON        CLEAR     73  66  79 S12       30.27R
ELIZABETH CITY CLEAR     72  66  81 S8        30.28R
KITTY HAWK     CLEAR     73  65  74 S6        30.27R
MANTEO         CLEAR     73  66  76 S18       30.29R

$$

NCZ045>047-081-094-103-104-270300-
CENTRAL COAST

CITY           SKY/WX    TMP DP  RH WIND       PRES   REMARKS
FRISCO         PTCLDY    73  63  70 S15       30.30R
SWANQUARTER      N/A     75 N/A N/A S13G21    30.27R

$$

NCZ095-097-098-100-101-270300-
SOUTHERN COAST

CITY           SKY/WX    TMP DP  RH WIND       PRES   REMARKS
BEAUFORT       MOCLDY    74  66  76 S10       30.29R
CEDAR ISLAND     N/A     73 N/A N/A S10       30.33S
JACKSONVILLE   PTCLDY    74  67  78 S7        30.26S
PINEY ISLAND   CLEAR    N/A N/A N/A S5        30.29R
WILMINGTON     CLOUDY    76  69  79 S8        30.25F


$$

NCZ011>013-027>030-043-044-078>080-089-090>093-098-270300-
COASTAL PLAIN

CITY           SKY/WX    TMP DP  RH WIND       PRES   REMARKS
AHOSKIE        CLEAR     74  67  79 S9        30.24R
CLINTON        CLEAR     74  72  93 CALM      30.25S
ELIZABETHTOWN  PTCLDY    74  70  89 SE6       30.25R
GOLDSBORO      PTCLDY    74  69  84 S3        30.22S
GREENVILLE     PTCLDY    73  70  88 S12       30.26R
HAVELOCK       PTCLDY    73  65  75 S6        30.29R
KENANSVILLE    CLOUDY    73  68  85 SE3       30.27R
KINSTON        PTCLDY    75  68  78 S10       30.25F
NEW BERN       CLEAR     73  66  78 S7        30.28R
RICHLANDS      MOCLDY    73  64  73 S6        30.28R
ROCKY MOUNT    CLEAR     76  69  79 S7        30.23R
WASHINGTON     PTCLDY    73  67  82 S6        30.27S
WHITEVILLE     CLOUDY    75  68  78 S6        30.25R

$$

AMZ130-135-150-152-154-156-158-170-250-252-270-ANZ085-086-088-633-658-670-270300-
MARINE OBSERVATIONS

STATION/POSITION TIME  TEMP    WIND        PRES    WAVE   SWELL
                       AIR SEA DIR/SP/G            HT/PER HT/PER
                 (UTC) (F)     (DEG/KT/KT) (MB)    (FT/S) (FT/S)
CHESAPEAKE LIGHT 0200   68     180/ 25/ 25 1024.4
64 E VA BEACH    0150   67 63  180/ 12/ 12 1025.2    3/ 5   2/ 5
DUCK             0200   73 60  190/ 15/ 21 1024.2
2 E DUCK         0111      62                N/A     2/ 3
OREGON INLET     0200   74 78  180/ 16/ 19 1025.6
13E OREGON INLT  0200      68                N/A     3/ 5
HATTERAS CG      0200   74 76  170/ 11/ 15 1025.5
DIAMOND BUOY     0150   74 76  170/ 16/ 19 1025.9    3/ 5   2/ 7
CAPE LOOKOUT     0200   74     170/ 13/ 15 1025.5
BEAUFORT LAB     0200   75 76  180/ 13/ 15 1024.8
27 SE WRIGHTSVLE 0200   73 76  180/ 12/ 16   N/A
5 SE WRIGHTSVLE  0108   76 76  170/ 16/ 19 1024.5
225 S CAPE HAT   0150   73 74  110/ 14/ 16 1026.1    4/ 6   2/11
41 SE CHARLESTON 0150   78 76  160/ 12/ 14 1024.0    4/ 6   2/ 6

$$


USA.gov is the U.S. government's official web portal to all federal, state and local government web resources and services.